Buffalo, WY

3:47 AM MDT on March 23, 2017 (GMT -0600)
Johnson County

Weather History for KBYG - August, 2014

Change the Weather History Date:

Sunday, August 10, 2014

  Actual Average Record
Temperature  
Mean Temperature 70 °F 71 °F  
Max Temperature 85 °F 85 °F 98 °F (2000)
Min Temperature 54 °F 57 °F 46 °F (2004)
Degree Days  
Heating Degree Days 0 1  
Month to date heating degree days 0 10  
Since 1 June heating degree days 217 198  
Since 1 July heating degree days 11 35  
Cooling Degree Days 5 7  
Month to date cooling degree days 59 73  
Year to date cooling degree days 264 334  
Since 1 June cooling degree days 253 327  
Growing Degree Days 18 (Base 50)    
Moisture  
Dew Point 47 °F    
Average Humidity 54    
Maximum Humidity 83    
Minimum Humidity 24    
Precipitation  
Precipitation 0.00 in 0.03 in 0.21 in (2005)
Month to date precipitation 0.45 0.35  
Year to date precipitation 8.06 9.81  
Sea Level Pressure  
Sea Level Pressure 30.17 in    
Wind  
Wind Speed 6 mph (South)    
Max Wind Speed 14 mph    
Max Gust Speed 19 mph    
Visibility 10 miles    
Events      
T = Trace of Precipitation, MM = Missing Value Source: NWS Daily Summary

Daily Weather History Graph

Daily Weather History Graph

Search for Another Location

Airport or City:

Trip Planner

Search our weather history database for the weather conditions in past years. The results will help you decide how hot, cold, wet, or windy it might be!

Date:

Astronomy

Aug. 10, 2014 Rise Set
Actual Time 6:04 AM MDT 8:19 PM MDT
Civil Twilight 5:32 AM MDT 8:51 PM MDT
Nautical Twilight 4:52 AM MDT 9:30 PM MDT
Astronomical Twilight 4:07 AM MDT 10:15 PM MDT
Moon 8:04 PM MDT (8/10) 6:02 AM MDT (8/10)
Length of Visible Light 15h 19m
Length of Day
14h 15m
Full, 100% of the Moon is Illuminated
Aug 10
Full
Aug 10
Full
Aug 17
Last Quarter
Aug 25
New
Sep 2
First Quarter

Hourly Weather History & Observations

Time (MDT) Temp. Dew Point Humidity Pressure Visibility Wind Dir Wind Speed Gust Speed Precip Events Conditions
12:53 AM 57.9 °F 50.0 °F 75% 30.19 in 10.0 mi WSW 8.1 mph - N/A   Clear
1:53 AM 57.9 °F 48.9 °F 72% 30.19 in 10.0 mi WSW 9.2 mph - N/A   Clear
2:53 AM 57.9 °F 48.9 °F 72% 30.19 in 10.0 mi WSW 6.9 mph - N/A   Partly Cloudy
3:53 AM 57.0 °F 48.9 °F 74% 30.19 in 10.0 mi SW 5.8 mph - N/A   Partly Cloudy
4:53 AM 57.0 °F 48.0 °F 72% 30.19 in 10.0 mi West 4.6 mph - N/A   Clear
5:53 AM 54.0 °F 48.0 °F 80% 30.21 in 10.0 mi WSW 5.8 mph - N/A   Clear
6:53 AM 57.0 °F 46.9 °F 69% 30.21 in 10.0 mi WSW 6.9 mph - N/A   Clear
8:53 AM 66.9 °F 53.1 °F 61% 30.19 in 10.0 mi SE 9.2 mph - N/A   Clear
9:53 AM 73.0 °F 50.0 °F 44% 30.19 in 10.0 mi SSE 10.4 mph - N/A   Clear
10:53 AM 75.0 °F 48.0 °F 38% 30.18 in 10.0 mi SSE 10.4 mph - N/A   Clear
11:53 AM 79.0 °F 48.0 °F 34% 30.18 in 10.0 mi SE 10.4 mph - N/A   Clear
12:53 PM 80.1 °F 43.0 °F 27% 30.17 in 10.0 mi ENE 6.9 mph - N/A   Clear
2:53 PM 82.9 °F 43.0 °F 24% 30.13 in 10.0 mi Variable 5.8 mph - N/A   Clear
3:53 PM 81.0 °F 42.1 °F 25% 30.13 in 10.0 mi Calm Calm - N/A   Scattered Clouds
4:53 PM 82.9 °F 43.0 °F 24% 30.11 in 10.0 mi ENE 4.6 mph - N/A   Partly Cloudy
6:53 PM 80.1 °F 44.1 °F 28% 30.12 in 10.0 mi East 6.9 mph - N/A   Overcast
7:53 PM 73.9 °F 48.0 °F 40% 30.12 in 10.0 mi South 4.6 mph - N/A   Clear
8:53 PM 72.0 °F 46.0 °F 40% 30.12 in 10.0 mi SE 4.6 mph - N/A   Clear
10:53 PM 69.1 °F 46.9 °F 45% 30.15 in 10.0 mi SSE 3.5 mph - N/A   Clear
11:53 PM 66.0 °F 46.0 °F 48% 30.15 in 10.0 mi SE 5.8 mph - N/A   Partly Cloudy